Weather History for Wray Municipal Airport, CO

Change the Weather History Date:

Monday, August 4, 2014

  Actual Average (KHEQ) Record (KHEQ)
Temperature  
Mean Temperature 80 °F -  
Max Temperature 94 °F 87 °F 95 °F (2014)
Min Temperature 65 °F 58 °F 60 °F (2014)
Cooling Degree Days 14    
Growing Degree Days 30 (Base 50)    
Moisture  
Dew Point 49 °F    
Average Humidity 35    
Maximum Humidity 59    
Minimum Humidity 18    
Precipitation  
Precipitation 0.00 in - - ()
Sea Level Pressure  
Sea Level Pressure 30.07 in    
Wind  
Wind Speed 11 mph (South)    
Max Wind Speed 17 mph    
Max Gust Speed 24 mph    
Visibility 10 miles    
Events      
Averages and records for this station are not official NWS values.
T = Trace of Precipitation, MM = Missing Value Source: NWS Daily Summary

Daily Weather History Graph

Daily Weather History Graph

Search for Another Location

Airport:

Trip Planner

Search our weather history database for the weather conditions in past years. The results will help you decide how hot, cold, wet, or windy it might be!

Date:

Astronomy

Aug. 04, 2014 Rise Set
Actual Time 5:49 AM MDT 7:59 PM MDT
Civil Twilight 5:19 AM MDT 8:29 PM MDT
Nautical Twilight 4:42 AM MDT 9:06 PM MDT
Astronomical Twilight 4:02 AM MDT 9:46 PM MDT
Moon 2:13 PM MDT (8/4) No Moon Set
Length of Visible Light 15h 09m
Length of Day
14h 09m
First Quarter, 58% of the Moon is Illuminated
Aug 4
First Quarter
Aug 10
Full
Aug 17
Last Quarter
Aug 25
New
Sep 2
First Quarter

Hourly Weather History & Observations

Time (MDT) Temp. Heat Index Dew Point Humidity Pressure Visibility Wind Dir Wind Speed Gust Speed Precip Events Conditions
12:15 AM 72.5 °F - 46.4 °F 39% 30.12 in 10.0 mi South 13.8 mph - N/A   Unknown
12:35 AM 72.7 °F - 45.7 °F 38% 30.11 in 10.0 mi SSW 13.8 mph 20.7 mph N/A   Unknown
1:15 AM 70.9 °F - 46.2 °F 41% 30.11 in 10.0 mi SW 9.2 mph - N/A   Unknown
1:35 AM 68.5 °F - 47.1 °F 46% 30.11 in 10.0 mi WSW 6.9 mph - N/A   Unknown
1:55 AM 68.7 °F - 46.6 °F 45% 30.10 in 10.0 mi SW 9.2 mph - N/A   Unknown
2:15 AM 68.4 °F - 46.8 °F 46% 30.11 in 10.0 mi SW 9.2 mph - N/A   Unknown
2:35 AM 67.1 °F - 47.3 °F 49% 30.10 in 10.0 mi SW 9.2 mph - N/A   Unknown
3:15 AM 66.0 °F - 48.4 °F 53% 30.10 in 10.0 mi WSW 8.1 mph - N/A   Unknown
3:35 AM 66.0 °F - 49.3 °F 55% 30.10 in 10.0 mi WSW 8.1 mph - N/A   Unknown
4:15 AM 67.6 °F - 50.2 °F 54% 30.10 in 10.0 mi WSW 8.1 mph - N/A   Unknown
4:35 AM 67.3 °F - 50.4 °F 55% 30.09 in 10.0 mi SW 6.9 mph - N/A   Unknown
4:55 AM 66.7 °F - 50.4 °F 56% 30.09 in 10.0 mi SW 8.1 mph - N/A   Unknown
5:15 AM 66.6 °F - 50.4 °F 56% 30.09 in 10.0 mi SW 10.4 mph - N/A   Unknown
5:35 AM 66.7 °F - 50.4 °F 56% 30.10 in 10.0 mi SW 9.2 mph - N/A   Unknown
5:55 AM 67.1 °F - 50.7 °F 56% 30.10 in 10.0 mi SW 9.2 mph - N/A   Unknown
6:15 AM 65.8 °F - 51.1 °F 59% 30.10 in 10.0 mi SW 9.2 mph - N/A   Unknown
6:35 AM 66.4 °F - 51.3 °F 58% 30.10 in 10.0 mi SW 10.4 mph 17.3 mph N/A   Unknown
7:15 AM 69.6 °F - 52.2 °F 54% 30.10 in 10.0 mi SW 10.4 mph - N/A   Unknown
7:35 AM 69.8 °F - 52.7 °F 54% 30.10 in 10.0 mi SW 9.2 mph - N/A   Unknown
7:55 AM 72.5 °F - 53.2 °F 51% 30.10 in 10.0 mi SSW 10.4 mph - N/A   Unknown
8:15 AM 75.0 °F - 53.1 °F 46% 30.11 in 10.0 mi SSW 8.1 mph - N/A   Unknown
8:35 AM 76.8 °F - 53.6 °F 44% 30.11 in 10.0 mi SSW 9.2 mph - N/A   Unknown
8:55 AM 78.8 °F - 53.4 °F 41% 30.10 in 10.0 mi SSW 6.9 mph - N/A   Unknown
9:15 AM 81.7 °F - 52.7 °F 37% 30.10 in 10.0 mi SSW 6.9 mph - N/A   Unknown
9:35 AM 83.3 °F - 52.7 °F 35% 30.10 in 10.0 mi South 8.1 mph - N/A   Unknown
9:55 AM 84.7 °F - 52.7 °F 33% 30.10 in 10.0 mi SSE 9.2 mph - N/A   Unknown
10:15 AM 86.7 °F 84.7 °F 53.4 °F 32% 30.10 in 10.0 mi SE 9.2 mph - N/A   Unknown
10:35 AM 88.0 °F 85.7 °F 53.1 °F 30% 30.10 in 10.0 mi SSE 8.1 mph - N/A   Unknown
10:55 AM 89.2 °F - 51.1 °F 27% 30.10 in 10.0 mi South 10.4 mph - N/A   Unknown
11:15 AM 90.3 °F - 48.0 °F 23% 30.10 in 10.0 mi SE 10.4 mph - N/A   Unknown
11:35 AM 91.0 °F - 47.8 °F 23% 30.09 in 10.0 mi SSE 12.7 mph 19.6 mph N/A   Unknown
11:55 AM 92.1 °F - 47.1 °F 21% 30.09 in 10.0 mi SSE 17.3 mph 24.2 mph N/A   Unknown
12:35 PM 92.7 °F - 48.4 °F 22% 30.08 in 10.0 mi SSE 13.8 mph 21.9 mph N/A   Unknown
12:55 PM 92.3 °F - 48.7 °F 22% 30.07 in 10.0 mi SSE 15.0 mph 23.0 mph N/A   Unknown
1:15 PM 93.0 °F - 47.1 °F 21% 30.06 in 10.0 mi SSE 15.0 mph 21.9 mph N/A   Unknown
1:35 PM 93.6 °F - 46.4 °F 20% 30.06 in 10.0 mi SSE 13.8 mph 23.0 mph N/A   Unknown
1:55 PM 93.6 °F - 44.1 °F 18% 30.05 in 10.0 mi SSE 10.4 mph 16.1 mph N/A   Unknown
2:35 PM 94.1 °F - 45.9 °F 19% 30.04 in 10.0 mi South 9.2 mph 17.3 mph N/A   Unknown
2:55 PM 93.2 °F - 46.4 °F 20% 30.04 in 10.0 mi South 15.0 mph 21.9 mph N/A   Unknown
3:15 PM 92.1 °F - 47.3 °F 21% 30.04 in 10.0 mi SSE 10.4 mph 17.3 mph N/A   Unknown
3:35 PM 93.0 °F - 46.2 °F 20% 30.03 in 10.0 mi SSE 13.8 mph 19.6 mph N/A   Unknown
3:55 PM 91.6 °F - 46.8 °F 21% 30.03 in 10.0 mi SSE 12.7 mph 18.4 mph N/A   Unknown
4:15 PM 93.9 °F - 48.0 °F 21% 30.03 in 10.0 mi SSE 15.0 mph 21.9 mph N/A   Unknown
4:35 PM 91.2 °F - 49.1 °F 24% 30.03 in 10.0 mi SSE 11.5 mph 17.3 mph N/A   Unknown
4:55 PM 90.5 °F - 49.5 °F 24% 30.02 in 10.0 mi SE 11.5 mph 18.4 mph N/A   Unknown
5:15 PM 90.3 °F - 48.6 °F 24% 30.01 in 10.0 mi SSE 13.8 mph 18.4 mph N/A   Unknown
5:35 PM 89.1 °F - 48.4 °F 25% 30.01 in 10.0 mi SE 11.5 mph - N/A   Unknown
5:55 PM 89.2 °F - 49.6 °F 26% 30.01 in 10.0 mi SE 11.5 mph - N/A   Unknown
6:15 PM 90.7 °F - 49.3 °F 24% 30.01 in 10.0 mi SE 16.1 mph 23.0 mph N/A   Unknown
6:35 PM 89.6 °F - 48.0 °F 24% 30.01 in 10.0 mi ESE 13.8 mph - N/A   Unknown
6:55 PM 88.9 °F - 48.0 °F 24% 30.02 in 10.0 mi ESE 13.8 mph - N/A   Unknown
7:15 PM 87.8 °F - 47.7 °F 25% 30.01 in 10.0 mi ESE 13.8 mph - N/A   Unknown
7:35 PM 85.6 °F - 48.4 °F 27% 30.03 in 10.0 mi SE 9.2 mph - N/A   Unknown
8:15 PM 82.8 °F - 50.0 °F 32% 30.03 in 10.0 mi SE 12.7 mph 18.4 mph N/A   Unknown
8:55 PM 81.3 °F - 49.5 °F 33% 30.04 in 10.0 mi SE 12.7 mph 19.6 mph N/A   Unknown
9:15 PM 80.6 °F - 49.3 °F 33% 30.05 in 10.0 mi SE 11.5 mph - N/A   Unknown
9:35 PM 79.9 °F - 49.1 °F 34% 30.06 in 10.0 mi SE 10.4 mph 18.4 mph N/A   Unknown
9:55 PM 79.5 °F - 49.1 °F 34% 30.06 in 10.0 mi SE 13.8 mph - N/A   Unknown
10:15 PM 78.8 °F - 48.7 °F 35% 30.05 in 10.0 mi SSE 12.7 mph 18.4 mph N/A   Unknown
10:35 PM 77.9 °F - 48.6 °F 36% 30.05 in 10.0 mi SSE 11.5 mph 19.6 mph N/A   Unknown
11:15 PM 77.0 °F - 48.2 °F 36% 30.05 in 10.0 mi SSE 15.0 mph 19.6 mph N/A   Unknown
11:35 PM 76.6 °F - 47.8 °F 36% 30.05 in 10.0 mi SSE 12.7 mph 19.6 mph N/A   Unknown